Chester, CT

2:37 AM EDT on May 24, 2017 (GMT -0400)
Chester

Weather History for KSNC - January, 2014

Change the Weather History Date:

Tuesday, January 7, 2014

  Actual Average (KHVN) Record (KHVN)
Temperature  
Mean Temperature 19 °F -  
Max Temperature 30 °F 36 °F 55 °F (2012)
Min Temperature 8 °F 25 °F 8 °F (1988)
Degree Days  
Heating Degree Days 46    
Moisture  
Dew Point -9 °F    
Average Humidity 38    
Maximum Humidity 64    
Minimum Humidity 27    
Precipitation  
Precipitation 0.00 in - - ()
Sea Level Pressure  
Sea Level Pressure 29.99 in    
Wind  
Wind Speed 11 mph (West)    
Max Wind Speed 18 mph    
Max Gust Speed 34 mph    
Visibility 10 miles    
Events Snow    
Averages and records for this station are not official NWS values.
T = Trace of Precipitation, MM = Missing Value Source: NWS Daily Summary

Daily Weather History Graph

Daily Weather History Graph

Search for Another Location

Airport or City:

Trip Planner

Search our weather history database for the weather conditions in past years. The results will help you decide how hot, cold, wet, or windy it might be!

Date:

Astronomy

Jan. 07, 2014 Rise Set
Actual Time 7:16 AM EST 4:36 PM EST
Civil Twilight 6:45 AM EST 5:07 PM EST
Nautical Twilight 6:10 AM EST 5:42 PM EST
Astronomical Twilight 5:37 AM EST 6:15 PM EST
Moon 10:58 AM EST (1/7) No Moon Set
Length of Visible Light 10h 22m
Length of Day
9h 20m
Waxing Crescent, 45% of the Moon is Illuminated
Jan 7
Waxing Crescent
Jan 7
First Quarter
Jan 15
Full
Jan 24
Last Quarter
Jan 30
New

Hourly Weather History & Observations

Time (EST) Temp. Windchill Dew Point Humidity Pressure Visibility Wind Dir Wind Speed Gust Speed Precip Events Conditions
12:15 AM 30.2 °F 21.9 °F 19.4 °F 64% 29.57 in 10.0 mi WSW 9.2 mph 24.2 mph N/A   Overcast
12:35 AM 30.2 °F 19.3 °F 19.4 °F 64% 29.56 in 10.0 mi West 15.0 mph 21.9 mph N/A   Overcast
12:55 AM 30.2 °F 24.3 °F 17.6 °F 60% 29.57 in 10.0 mi West 5.8 mph 23.0 mph N/A   Overcast
1:15 AM 28.4 °F 18.5 °F 14.0 °F 55% 29.59 in 10.0 mi West 11.5 mph 18.4 mph N/A   Mostly Cloudy
1:35 AM 26.6 °F 16.2 °F 10.4 °F 51% 29.61 in 10.0 mi West 11.5 mph 21.9 mph N/A   Scattered Clouds
1:55 AM 23.0 °F 10.6 °F 5.0 °F 46% 29.62 in 10.0 mi West 13.8 mph 28.8 mph N/A   Clear
2:15 AM 23.0 °F 12.4 °F 5.0 °F 46% 29.64 in 10.0 mi West 10.4 mph 27.6 mph N/A   Partly Cloudy
2:35 AM 21.2 °F 9.5 °F 6.8 °F 54% 29.65 in 10.0 mi West 11.5 mph 21.9 mph N/A   Mostly Cloudy
2:55 AM 21.2 °F 8.9 °F 5.0 °F 50% 29.67 in 10.0 mi West 12.7 mph 21.9 mph N/A Snow Light Snow
3:15 AM 19.4 °F 7.2 °F 8.6 °F 63% 29.69 in 8.0 mi WNW 11.5 mph 27.6 mph N/A Snow Light Snow
3:35 AM 19.4 °F 6.6 °F 5.0 °F 54% 29.71 in 10.0 mi West 12.7 mph 21.9 mph N/A Snow Light Snow
3:55 AM 17.6 °F 3.7 °F -2.2 °F 42% 29.72 in 10.0 mi WNW 13.8 mph 21.9 mph N/A   Overcast
4:15 AM 14.0 °F 0.5 °F -5.8 °F 41% 29.74 in 10.0 mi WNW 11.5 mph 34.5 mph N/A   Scattered Clouds
4:35 AM 12.2 °F -1.0 °F -7.6 °F 41% 29.76 in 10.0 mi WNW 10.4 mph 25.3 mph N/A   Clear
4:55 AM 12.2 °F -1.0 °F -7.6 °F 41% 29.77 in 10.0 mi WNW 10.4 mph 25.3 mph N/A   Clear
5:15 AM 12.2 °F -5.3 °F -9.4 °F 38% 29.80 in 10.0 mi WNW 18.4 mph 24.2 mph N/A   Clear
5:35 AM 10.4 °F -3.3 °F -9.4 °F 41% 29.82 in 10.0 mi WNW 10.4 mph 25.3 mph N/A   Clear
5:55 AM 10.4 °F -5.4 °F -9.4 °F 41% 29.83 in 10.0 mi WNW 13.8 mph 28.8 mph N/A   Clear
6:15 AM 10.4 °F -6.0 °F - N/A% 29.85 in 10.0 mi WNW 15.0 mph 23.0 mph N/A   Clear
6:35 AM 10.4 °F -4.8 °F -11.2 °F 37% 29.87 in 10.0 mi West 12.7 mph 31.1 mph N/A   Clear
6:55 AM 10.4 °F -1.5 °F -9.4 °F 41% 29.89 in 10.0 mi WNW 8.1 mph 23.0 mph N/A   Clear
7:15 AM 8.6 °F -5.5 °F -11.2 °F 40% 29.91 in 10.0 mi West 10.4 mph 19.6 mph N/A   Unknown
7:35 AM 8.6 °F -6.3 °F -11.2 °F 40% 29.92 in 10.0 mi West 11.5 mph 19.6 mph N/A   Clear
7:55 AM 8.6 °F -4.7 °F -9.4 °F 44% 29.94 in 10.0 mi West 9.2 mph 16.1 mph N/A   Clear
8:15 AM 8.6 °F -4.7 °F -11.2 °F 40% 29.96 in 10.0 mi West 9.2 mph 21.9 mph N/A   Clear
8:35 AM 10.4 °F -1.5 °F -11.2 °F 37% 29.97 in 10.0 mi West 8.1 mph 17.3 mph N/A   Clear
8:55 AM 10.4 °F -2.4 °F -13.0 °F 34% 29.98 in 10.0 mi WNW 9.2 mph 19.6 mph N/A   Clear
9:15 AM 10.4 °F -4.8 °F -13.0 °F 34% 30.00 in 10.0 mi West 12.7 mph 27.6 mph N/A   Clear
9:35 AM 10.4 °F -5.4 °F -13.0 °F 34% 30.01 in 10.0 mi West 13.8 mph 21.9 mph N/A   Clear
9:55 AM 10.4 °F -3.3 °F -13.0 °F 34% 30.02 in 10.0 mi WNW 10.4 mph 21.9 mph N/A   Clear
10:15 AM 10.4 °F -4.8 °F -13.0 °F 34% 30.03 in 10.0 mi WNW 12.7 mph 21.9 mph N/A   Clear
10:35 AM 10.4 °F -3.3 °F -13.0 °F 34% 30.03 in 10.0 mi West 10.4 mph 21.9 mph N/A   Clear
10:55 AM 10.4 °F -4.8 °F -13.0 °F 34% 30.03 in 10.0 mi West 12.7 mph 21.9 mph N/A   Clear
11:15 AM 12.2 °F -1.8 °F -13.0 °F 32% 30.03 in 10.0 mi WNW 11.5 mph 20.7 mph N/A   Clear
11:35 AM 10.4 °F -4.8 °F -14.8 °F 31% 30.02 in 10.0 mi WNW 12.7 mph 19.6 mph N/A   Clear
11:55 AM 10.4 °F -4.8 °F -13.0 °F 34% 30.02 in 10.0 mi West 12.7 mph 19.6 mph N/A   Clear
12:15 PM 12.2 °F -1.8 °F -13.0 °F 32% 30.01 in 10.0 mi West 11.5 mph 17.3 mph N/A   Clear
12:35 PM 12.2 °F -1.8 °F -13.0 °F 32% 30.01 in 10.0 mi West 11.5 mph 19.6 mph N/A   Clear
12:55 PM 12.2 °F -1.8 °F -13.0 °F 32% 30.02 in 10.0 mi West 11.5 mph 17.3 mph N/A   Clear
1:15 PM 12.2 °F 0.7 °F -13.0 °F 32% 30.03 in 10.0 mi West 8.1 mph 21.9 mph N/A   Clear
1:35 PM 12.2 °F -0.2 °F -14.8 °F 29% 30.04 in 10.0 mi West 9.2 mph 20.7 mph N/A   Clear
1:55 PM 12.2 °F -1.8 °F -14.8 °F 29% 30.04 in 10.0 mi West 11.5 mph 23.0 mph N/A   Clear
2:15 PM 12.2 °F -2.5 °F -16.6 °F 27% 30.05 in 10.0 mi NW 12.7 mph 19.6 mph N/A   Clear
2:35 PM 12.2 °F -1.8 °F -14.8 °F 29% 30.06 in 10.0 mi West 11.5 mph 18.4 mph N/A   Clear
2:55 PM 12.2 °F -2.5 °F -14.8 °F 29% 30.07 in 10.0 mi West 12.7 mph 20.7 mph N/A   Clear
3:15 PM 12.2 °F -3.7 °F -14.8 °F 29% 30.10 in 10.0 mi West 15.0 mph 19.6 mph N/A   Clear
3:35 PM 12.2 °F -1.8 °F -16.6 °F 27% 30.10 in 10.0 mi West 11.5 mph 20.7 mph N/A   Clear
3:55 PM 12.2 °F -1.0 °F -14.8 °F 29% 30.11 in 10.0 mi WNW 10.4 mph 17.3 mph N/A   Clear
4:15 PM 12.2 °F -1.0 °F -14.8 °F 29% 30.11 in 10.0 mi West 10.4 mph 18.4 mph N/A   Clear
4:35 PM 10.4 °F -0.4 °F -14.8 °F 31% 30.11 in 10.0 mi West 6.9 mph 18.4 mph N/A   Clear
4:55 PM 10.4 °F -4.1 °F -14.8 °F 31% 30.12 in 10.0 mi West 11.5 mph 19.6 mph N/A   Clear
5:15 PM 10.4 °F -4.1 °F -14.8 °F 31% 30.14 in 10.0 mi West 11.5 mph 19.6 mph N/A   Clear
5:35 PM 10.4 °F 0.8 °F -14.8 °F 31% 30.15 in 10.0 mi West 5.8 mph - N/A   Clear
5:55 PM 10.4 °F 0.8 °F -13.0 °F 34% 30.16 in 10.0 mi West 5.8 mph - N/A   Clear
6:15 PM 10.4 °F 0.8 °F -13.0 °F 34% 30.17 in 10.0 mi West 5.8 mph - N/A   Clear
6:35 PM 10.4 °F -2.4 °F -13.0 °F 34% 30.18 in 10.0 mi West 9.2 mph - N/A   Clear
6:55 PM 10.4 °F -2.4 °F -13.0 °F 34% 30.18 in 10.0 mi West 9.2 mph 18.4 mph N/A   Clear
7:15 PM 10.4 °F -2.4 °F -13.0 °F 34% 30.19 in 10.0 mi WNW 9.2 mph - N/A   Clear
7:35 PM 10.4 °F -0.4 °F -13.0 °F 34% 30.20 in 10.0 mi West 6.9 mph 18.4 mph N/A   Clear
7:55 PM 8.6 °F -4.7 °F -13.0 °F 37% 30.21 in 10.0 mi WNW 9.2 mph 18.4 mph N/A   Clear
8:15 PM 8.6 °F -2.6 °F -13.0 °F 37% 30.21 in 10.0 mi West 6.9 mph - N/A   Clear
8:35 PM 8.6 °F -3.7 °F -13.0 °F 37% 30.23 in 10.0 mi West 8.1 mph - N/A   Clear
8:55 PM 8.6 °F -4.7 °F -13.0 °F 37% 30.24 in 10.0 mi West 9.2 mph - N/A   Clear
9:15 PM 8.6 °F -1.3 °F -13.0 °F 37% 30.25 in 10.0 mi West 5.8 mph - N/A   Clear
9:35 PM 8.6 °F -1.3 °F -13.0 °F 37% 30.26 in 10.0 mi West 5.8 mph - N/A   Clear
9:55 PM 8.6 °F -2.6 °F -13.0 °F 37% 30.26 in 10.0 mi West 6.9 mph - N/A   Clear
10:15 PM 8.6 °F -2.6 °F -13.0 °F 37% 30.27 in 10.0 mi WSW 6.9 mph - N/A   Clear
10:35 PM 8.6 °F -2.6 °F - N/A% 30.28 in 10.0 mi West 6.9 mph - N/A   Clear
10:55 PM 8.6 °F -4.7 °F -9.4 °F 44% 30.28 in 10.0 mi WSW 9.2 mph - N/A   Clear
11:15 PM 8.6 °F -5.5 °F -9.4 °F 44% 30.28 in 10.0 mi WSW 10.4 mph 17.3 mph N/A   Clear
11:35 PM 8.6 °F -2.6 °F -9.4 °F 44% 30.29 in 10.0 mi West 6.9 mph - N/A   Clear
11:55 PM 8.6 °F -2.6 °F -9.4 °F 44% 30.29 in 10.0 mi West 6.9 mph - N/A   Clear